LPE2472 SPJC-MMMX

Flight info

Callsign LPE2472
Flight time 5h 41m
Altitude 36000
Route TELEB2F ISREN UM542 ARNEL/N0455F380 UL203 LIXAS UZ512 RADIM UL318 IZT UT157 LARLO LARLO4A
Aircraft A20N/M-SDE2E3FGHIRWXY/LB1

Departure

Time 2026-05-07 20:44
Airport Jorge Chávez International Airport (SPJC)

Arrival

Time 2026-05-08 02:26
Airport Mexico City Benito Juárez International Airport (MMMX)
Time Latitude Longitude Altitude Speed Heading
2026-05-07 19:47 -12.02550 -77.11752 116 ft 0 kts 244°
2026-05-07 20:33 -12.02547 -77.11747 115 ft 2 kts 244°
2026-05-07 20:33 -12.02540 -77.11733 115 ft 2 kts 244°
2026-05-07 20:34 -12.02534 -77.11719 115 ft 2 kts 244°
2026-05-07 20:34 -12.02529 -77.11706 115 ft 2 kts 280°
2026-05-07 20:34 -12.02536 -77.11693 115 ft 0 kts 328°
2026-05-07 20:34 -12.02542 -77.11691 115 ft 1 kts 336°
2026-05-07 20:35 -12.02543 -77.11690 115 ft 0 kts 335°
2026-05-07 20:37 -12.02518 -77.11703 115 ft 7 kts 333°
2026-05-07 20:38 -12.02449 -77.11738 115 ft 11 kts 334°
2026-05-07 20:38 -12.02383 -77.11707 115 ft 13 kts 63°
2026-05-07 20:38 -12.02333 -77.11627 115 ft 10 kts 14°
2026-05-07 20:38 -12.02257 -77.11654 115 ft 13 kts 334°
2026-05-07 20:39 -12.02162 -77.11700 115 ft 16 kts 334°
2026-05-07 20:39 -12.02050 -77.11755 115 ft 18 kts 334°
2026-05-07 20:39 -12.01931 -77.11814 115 ft 18 kts 332°
2026-05-07 20:39 -12.01857 -77.11846 115 ft 9 kts 12°
2026-05-07 20:40 -12.01802 -77.11803 115 ft 12 kts
2026-05-07 20:40 -12.01714 -77.11839 115 ft 15 kts 333°
2026-05-07 20:40 -12.01609 -77.11890 115 ft 18 kts 334°
2026-05-07 20:40 -12.01489 -77.11951 115 ft 20 kts 334°
2026-05-07 20:41 -12.01358 -77.12015 115 ft 20 kts 334°
2026-05-07 20:41 -12.01263 -77.12095 115 ft 17 kts 308°
2026-05-07 20:41 -12.01174 -77.12180 115 ft 17 kts 334°
2026-05-07 20:41 -12.01063 -77.12234 115 ft 17 kts 333°
2026-05-07 20:42 -12.00967 -77.12283 115 ft 10 kts 334°
2026-05-07 20:42 -12.00900 -77.12316 115 ft 10 kts 334°
2026-05-07 20:42 -12.00846 -77.12283 115 ft 10 kts 64°
2026-05-07 20:42 -12.00813 -77.12214 115 ft 10 kts 64°
2026-05-07 20:43 -12.00780 -77.12143 115 ft 10 kts 73°
2026-05-07 20:43 -12.00792 -77.12122 115 ft 0 kts 153°
2026-05-07 20:43 -12.00966 -77.12035 116 ft 65 kts 154°
2026-05-07 20:44 -12.01583 -77.11732 116 ft 130 kts 153°
2026-05-07 20:44 -12.02529 -77.11262 342 ft 158 kts 154°
2026-05-07 20:44 -12.03493 -77.10786 951 ft 157 kts 154°
2026-05-07 20:44 -12.04497 -77.10290 1362 ft 168 kts 154°
2026-05-07 20:45 -12.05618 -77.09737 1696 ft 189 kts 154°
2026-05-07 20:45 -12.06859 -77.09126 2117 ft 205 kts 154°
2026-05-07 20:45 -12.08217 -77.08461 2461 ft 228 kts 157°
2026-05-07 20:45 -12.09838 -77.08195 2871 ft 249 kts 191°
2026-05-07 20:46 -12.11433 -77.08989 3387 ft 264 kts 223°
2026-05-07 20:46 -12.12441 -77.10541 4135 ft 269 kts 254°
2026-05-07 20:46 -12.12513 -77.12451 4960 ft 271 kts 286°
2026-05-07 20:46 -12.11601 -77.14089 5739 ft 274 kts 317°
2026-05-07 20:47 -12.10100 -77.15290 6565 ft 276 kts 324°
2026-05-07 20:47 -12.08527 -77.16441 7332 ft 280 kts 324°
2026-05-07 20:47 -12.06957 -77.17596 8096 ft 283 kts 324°
2026-05-07 20:47 -12.05360 -77.18784 8859 ft 286 kts 324°
2026-05-07 20:48 -12.03750 -77.19991 9601 ft 290 kts 323°
2026-05-07 20:48 -12.02118 -77.21219 10319 ft 293 kts 323°
2026-05-07 20:48 -12.00463 -77.22468 10751 ft 307 kts 323°
2026-05-07 20:48 -11.98699 -77.23801 11102 ft 322 kts 323°
2026-05-07 20:49 -11.96864 -77.25188 11724 ft 328 kts 323°
2026-05-07 20:49 -11.95036 -77.26570 12425 ft 330 kts 323°
2026-05-07 20:49 -11.93169 -77.27982 13101 ft 333 kts 323°
2026-05-07 20:49 -11.91280 -77.29412 13762 ft 337 kts 323°
2026-05-07 20:50 -11.89388 -77.30843 14407 ft 340 kts 323°
2026-05-07 20:50 -11.87444 -77.32313 15051 ft 343 kts 323°
2026-05-07 20:50 -11.85515 -77.33772 15669 ft 346 kts 323°
2026-05-07 20:50 -11.83577 -77.35238 16271 ft 349 kts 323°
2026-05-07 20:51 -11.81615 -77.36723 16861 ft 352 kts 323°
2026-05-07 20:51 -11.79608 -77.38240 17444 ft 355 kts 323°
2026-05-07 20:51 -11.77573 -77.39783 17979 ft 360 kts 324°
2026-05-07 20:51 -11.75523 -77.41336 18348 ft 369 kts 324°
2026-05-07 20:52 -11.73451 -77.42899 18828 ft 373 kts 324°
2026-05-07 20:52 -11.71324 -77.44504 19371 ft 376 kts 323°
2026-05-07 20:52 -11.69251 -77.46130 19894 ft 379 kts 322°
2026-05-07 20:52 -11.67193 -77.47784 20446 ft 381 kts 322°
2026-05-07 20:53 -11.65108 -77.49468 20966 ft 383 kts 322°
2026-05-07 20:53 -11.63003 -77.51163 21462 ft 386 kts 322°
2026-05-07 20:53 -11.60901 -77.52853 21948 ft 389 kts 322°
2026-05-07 20:53 -11.58767 -77.54568 22434 ft 392 kts 322°
2026-05-07 20:54 -11.56642 -77.56272 22903 ft 395 kts 322°
2026-05-07 20:54 -11.54470 -77.58013 23372 ft 397 kts 322°
2026-05-07 20:54 -11.52289 -77.59761 23831 ft 400 kts 322°
2026-05-07 20:54 -11.50093 -77.61520 24280 ft 403 kts 321°
2026-05-07 20:55 -11.47887 -77.63286 24743 ft 404 kts 321°
2026-05-07 20:55 -11.45727 -77.65015 25209 ft 405 kts 321°
2026-05-07 20:55 -11.43481 -77.66813 25683 ft 406 kts 321°
2026-05-07 20:55 -11.41236 -77.68610 26146 ft 407 kts 321°
2026-05-07 20:56 -11.39028 -77.70376 26587 ft 408 kts 321°
2026-05-07 20:56 -11.36799 -77.72159 27020 ft 409 kts 321°
2026-05-07 20:56 -11.34556 -77.73953 27432 ft 410 kts 321°
2026-05-07 20:56 -11.32288 -77.75768 27813 ft 412 kts 321°
2026-05-07 20:57 -11.30049 -77.77557 28186 ft 413 kts 321°
2026-05-07 20:57 -11.27803 -77.79353 28550 ft 414 kts 321°
2026-05-07 20:57 -11.25517 -77.81181 28901 ft 415 kts 321°
2026-05-07 20:57 -11.23249 -77.82994 29226 ft 416 kts 320°
2026-05-07 20:58 -11.20980 -77.84808 29546 ft 417 kts 320°
2026-05-07 20:58 -11.18690 -77.86637 29850 ft 418 kts 320°
2026-05-07 20:58 -11.16394 -77.88472 30144 ft 419 kts 320°
2026-05-07 20:58 -11.14119 -77.90289 30419 ft 420 kts 320°
2026-05-07 20:59 -11.11818 -77.92126 30672 ft 421 kts 320°
2026-05-07 20:59 -11.09516 -77.93955 30931 ft 422 kts 321°
2026-05-07 20:59 -11.07131 -77.95702 31260 ft 422 kts 323°
2026-05-07 20:59 -11.04657 -77.97311 31599 ft 421 kts 327°
2026-05-07 21:00 -11.02101 -77.98776 31919 ft 421 kts 329°
2026-05-07 21:00 -10.99493 -78.00153 32223 ft 420 kts 329°
2026-05-07 21:00 -10.96906 -78.01509 32528 ft 419 kts 329°
2026-05-07 21:00 -10.94340 -78.02853 32829 ft 417 kts 329°
2026-05-07 21:01 -10.91771 -78.04199 33104 ft 416 kts 329°
2026-05-07 21:01 -10.89195 -78.05550 33363 ft 416 kts 329°
2026-05-07 21:01 -10.86587 -78.06916 33639 ft 414 kts 328°
2026-05-07 21:01 -10.84033 -78.08255 33928 ft 412 kts 328°
2026-05-07 21:02 -10.81484 -78.09592 34192 ft 411 kts 328°
2026-05-07 21:02 -10.78968 -78.10912 34401 ft 411 kts 328°
2026-05-07 21:02 -10.76403 -78.12260 34576 ft 412 kts 328°
2026-05-07 21:02 -10.73867 -78.13591 34732 ft 413 kts 328°
2026-05-07 21:03 -10.71286 -78.14945 34900 ft 413 kts 328°
2026-05-07 21:03 -10.68739 -78.16280 35078 ft 414 kts 328°
2026-05-07 21:03 -10.66182 -78.17619 35253 ft 414 kts 328°
2026-05-07 21:03 -10.63630 -78.18955 35416 ft 414 kts 328°
2026-05-07 21:04 -10.61048 -78.20306 35572 ft 414 kts 328°
2026-05-07 21:04 -10.58501 -78.21641 35723 ft 415 kts 328°
2026-05-07 21:04 -10.55949 -78.22977 35860 ft 415 kts 328°
2026-05-07 21:04 -10.53360 -78.24332 35992 ft 416 kts 329°
2026-05-07 21:05 -10.50811 -78.25665 36023 ft 416 kts 329°
2026-05-07 21:05 -10.45677 -78.28350 36029 ft 417 kts 329°
2026-05-07 21:06 -10.40518 -78.31048 36030 ft 417 kts 329°
2026-05-07 21:06 -10.35358 -78.33745 36030 ft 417 kts 329°
2026-05-07 21:07 -10.30204 -78.36437 36030 ft 417 kts 329°
2026-05-07 21:07 -10.25038 -78.39136 36030 ft 417 kts 329°
2026-05-07 21:08 -10.19900 -78.41818 36030 ft 417 kts 329°
2026-05-07 21:08 -10.14713 -78.44525 36026 ft 417 kts 329°
2026-05-07 21:09 -10.09578 -78.47205 36020 ft 417 kts 329°
2026-05-07 21:09 -10.04439 -78.49885 36013 ft 418 kts 328°
2026-05-07 21:10 -9.99252 -78.52589 36007 ft 418 kts 328°
2026-05-07 21:10 -9.94069 -78.55291 36005 ft 419 kts 328°
2026-05-07 21:11 -9.88893 -78.57989 36004 ft 419 kts 328°
2026-05-07 21:11 -9.81076 -78.62059 36004 ft 419 kts 328°
2026-05-07 21:12 -9.75910 -78.64750 36004 ft 419 kts 328°
2026-05-07 21:12 -9.70707 -78.67458 36001 ft 419 kts 329°
2026-05-07 21:13 -9.65497 -78.70126 35987 ft 420 kts 329°
2026-05-07 21:13 -9.60274 -78.72780 35966 ft 420 kts 329°
2026-05-07 21:14 -9.55067 -78.75430 35946 ft 420 kts 329°
2026-05-07 21:14 -9.49839 -78.78093 35933 ft 420 kts 329°
2026-05-07 21:15 -9.44616 -78.80753 35927 ft 421 kts 329°
2026-05-07 21:15 -9.39428 -78.83395 35924 ft 421 kts 329°
2026-05-07 21:16 -9.34180 -78.86066 35923 ft 421 kts 329°
2026-05-07 21:16 -9.28940 -78.88730 35923 ft 421 kts 329°
2026-05-07 21:17 -9.23741 -78.91370 35923 ft 421 kts 329°
2026-05-07 21:17 -9.18518 -78.94024 35923 ft 421 kts 329°
2026-05-07 21:18 -9.13277 -78.96687 35923 ft 421 kts 329°
2026-05-07 21:18 -9.08046 -78.99345 35924 ft 421 kts 329°
2026-05-07 21:19 -9.02807 -79.02006 35932 ft 422 kts 329°
2026-05-07 21:19 -8.97556 -79.04672 35942 ft 422 kts 329°
2026-05-07 21:20 -8.92337 -79.07320 35948 ft 422 kts 329°
2026-05-07 21:20 -8.87036 -79.10010 35949 ft 422 kts 329°
2026-05-07 21:21 -8.81729 -79.12703 35947 ft 422 kts 329°
2026-05-07 21:21 -8.76498 -79.15355 35942 ft 423 kts 329°
2026-05-07 21:22 -8.71244 -79.18018 35937 ft 423 kts 329°
2026-05-07 21:22 -8.66010 -79.20670 35943 ft 423 kts 329°
2026-05-07 21:23 -8.60741 -79.23339 35963 ft 422 kts 329°
2026-05-07 21:23 -8.55517 -79.25985 35974 ft 422 kts 329°
2026-05-07 21:24 -8.50252 -79.28651 35979 ft 422 kts 329°
2026-05-07 21:24 -8.45027 -79.31295 35982 ft 422 kts 329°
2026-05-07 21:25 -8.39773 -79.33955 35983 ft 422 kts 329°
2026-05-07 21:25 -8.34499 -79.36624 35983 ft 422 kts 329°
2026-05-07 21:26 -8.29260 -79.39275 35983 ft 422 kts 329°
2026-05-07 21:26 -8.24030 -79.41920 35983 ft 422 kts 329°
2026-05-07 21:27 -8.18798 -79.44560 35983 ft 422 kts 329°
2026-05-07 21:27 -8.13540 -79.47214 35983 ft 422 kts 329°
2026-05-07 21:28 -8.08318 -79.49850 35983 ft 422 kts 329°
2026-05-07 21:28 -8.03081 -79.52494 35983 ft 422 kts 329°
2026-05-07 21:29 -7.97846 -79.55135 35982 ft 422 kts 329°
2026-05-07 21:29 -7.92623 -79.57772 35983 ft 422 kts 329°
2026-05-07 21:30 -7.87387 -79.60413 35983 ft 422 kts 329°
2026-05-07 21:30 -7.82091 -79.63083 35983 ft 422 kts 329°
2026-05-07 21:31 -7.76842 -79.65729 35984 ft 422 kts 329°
2026-05-07 21:31 -7.71579 -79.68381 35983 ft 422 kts 329°
2026-05-07 21:32 -7.66353 -79.71015 35983 ft 422 kts 329°
2026-05-07 21:32 -7.61091 -79.73666 35983 ft 422 kts 329°
2026-05-07 21:33 -7.55856 -79.76302 35978 ft 422 kts 329°
2026-05-07 21:33 -7.50607 -79.78945 35965 ft 422 kts 329°
2026-05-07 21:34 -7.45367 -79.81583 35956 ft 423 kts 329°
2026-05-07 21:34 -7.40203 -79.84180 35952 ft 423 kts 329°
2026-05-07 21:35 -7.34914 -79.86840 35950 ft 423 kts 329°
2026-05-07 21:35 -7.29679 -79.89473 35944 ft 423 kts 329°
2026-05-07 21:36 -7.24396 -79.92130 35929 ft 423 kts 329°
2026-05-07 21:36 -7.19144 -79.94769 35906 ft 424 kts 329°
2026-05-07 21:37 -7.13850 -79.97430 35886 ft 425 kts 329°
2026-05-07 21:37 -7.08598 -80.00069 35875 ft 425 kts 329°
2026-05-07 21:38 -7.03307 -80.02726 35870 ft 424 kts 329°
2026-05-07 21:38 -6.98033 -80.05376 35868 ft 425 kts 329°
2026-05-07 21:39 -6.92757 -80.08027 35868 ft 425 kts 329°
2026-05-07 21:39 -6.87455 -80.10687 35868 ft 425 kts 329°
2026-05-07 21:40 -6.82073 -80.13381 35868 ft 425 kts 330°
2026-05-07 21:40 -6.76780 -80.16027 35868 ft 426 kts 329°
2026-05-07 21:41 -6.71504 -80.18665 35868 ft 426 kts 329°
2026-05-07 21:41 -6.66185 -80.21326 35868 ft 426 kts 329°
2026-05-07 21:42 -6.60888 -80.23976 35868 ft 426 kts 330°
2026-05-07 21:42 -6.55606 -80.26617 35868 ft 426 kts 330°
2026-05-07 21:43 -6.50296 -80.29271 35868 ft 426 kts 330°
2026-05-07 21:43 -6.44981 -80.31927 35868 ft 426 kts 330°
2026-05-07 21:44 -6.39694 -80.34569 35868 ft 426 kts 330°
2026-05-07 21:44 -6.34390 -80.37219 35868 ft 427 kts 330°
2026-05-07 21:45 -6.29088 -80.39866 35868 ft 427 kts 330°
2026-05-07 21:45 -6.23772 -80.42521 35868 ft 427 kts 330°
2026-05-07 21:46 -6.18464 -80.45171 35868 ft 427 kts 330°
2026-05-07 21:46 -6.13166 -80.47815 35868 ft 427 kts 330°
2026-05-07 21:47 -6.07831 -80.50477 35868 ft 427 kts 330°
2026-05-07 21:47 -6.02536 -80.53119 35867 ft 427 kts 330°
2026-05-07 21:48 -5.97223 -80.55769 35862 ft 427 kts 330°
2026-05-07 21:48 -5.91907 -80.58421 35854 ft 427 kts 330°
2026-05-07 21:49 -5.86535 -80.61099 35847 ft 427 kts 330°
2026-05-07 21:49 -5.81213 -80.63751 35842 ft 427 kts 330°
2026-05-07 21:50 -5.75911 -80.66392 35841 ft 427 kts 330°
2026-05-07 21:50 -5.70604 -80.69036 35840 ft 427 kts 330°
2026-05-07 21:51 -5.65259 -80.71699 35839 ft 427 kts 330°
2026-05-07 21:51 -5.59933 -80.74352 35840 ft 428 kts 330°
2026-05-07 21:52 -5.54612 -80.77001 35840 ft 428 kts 330°
2026-05-07 21:52 -5.49314 -80.79639 35840 ft 428 kts 330°
2026-05-07 21:53 -5.43981 -80.82293 35840 ft 428 kts 330°
2026-05-07 21:53 -5.38683 -80.84930 35840 ft 427 kts 330°
2026-05-07 21:54 -5.33345 -80.87586 35840 ft 427 kts 330°
2026-05-07 21:54 -5.28051 -80.90220 35839 ft 427 kts 330°
2026-05-07 21:55 -5.22722 -80.92873 35839 ft 427 kts 330°
2026-05-07 21:55 -5.17406 -80.95516 35840 ft 427 kts 330°
2026-05-07 21:56 -5.12071 -80.98173 35840 ft 427 kts 330°
2026-05-07 21:56 -5.06776 -81.00825 35840 ft 427 kts 330°
2026-05-07 21:57 -5.01448 -81.03496 35839 ft 427 kts 330°
2026-05-07 21:57 -4.96166 -81.06141 35839 ft 427 kts 330°
2026-05-07 21:58 -4.90835 -81.08810 35839 ft 427 kts 330°
2026-05-07 21:58 -4.85509 -81.11477 35839 ft 427 kts 330°
2026-05-07 21:59 -4.80194 -81.14139 35839 ft 427 kts 330°
2026-05-07 21:59 -4.74892 -81.16793 35840 ft 427 kts 330°
2026-05-07 22:00 -4.69586 -81.19450 35840 ft 427 kts 330°
2026-05-07 22:00 -4.64236 -81.22128 35840 ft 428 kts 330°
2026-05-07 22:01 -4.58837 -81.24655 35839 ft 430 kts 335°
2026-05-07 22:01 -4.53160 -81.26607 35839 ft 433 kts 341°
2026-05-07 22:02 -4.47404 -81.28222 35840 ft 433 kts 341°
2026-05-07 22:02 -4.41585 -81.29848 35840 ft 433 kts 341°
2026-05-07 22:03 -4.35799 -81.31468 35839 ft 433 kts 341°
2026-05-07 22:03 -4.30006 -81.33092 35840 ft 433 kts 341°
2026-05-07 22:04 -4.24222 -81.34714 35840 ft 433 kts 341°
2026-05-07 22:04 -4.18434 -81.36338 35840 ft 433 kts 341°
2026-05-07 22:05 -4.12653 -81.37960 35840 ft 433 kts 341°
2026-05-07 22:05 -4.06842 -81.39590 35840 ft 433 kts 341°
2026-05-07 22:06 -4.01075 -81.41206 35840 ft 433 kts 341°
2026-05-07 22:06 -3.95246 -81.42841 35840 ft 433 kts 341°
2026-05-07 22:07 -3.89464 -81.44462 35839 ft 433 kts 341°
2026-05-07 22:07 -3.83615 -81.46101 35839 ft 433 kts 341°
2026-05-07 22:08 -3.77790 -81.47732 35840 ft 433 kts 341°
2026-05-07 22:08 -3.72001 -81.49355 35840 ft 433 kts 341°
2026-05-07 22:09 -3.66223 -81.50974 35840 ft 433 kts 341°
2026-05-07 22:09 -3.60440 -81.52595 35840 ft 433 kts 341°
2026-05-07 22:10 -3.54664 -81.54214 35840 ft 433 kts 341°
2026-05-07 22:10 -3.48868 -81.55839 35840 ft 432 kts 341°
2026-05-07 22:11 -3.43084 -81.57459 35840 ft 432 kts 342°
2026-05-07 22:11 -3.37247 -81.58913 35840 ft 434 kts 345°
2026-05-07 22:12 -3.31357 -81.60162 35840 ft 434 kts 345°
2026-05-07 22:12 -3.25441 -81.61412 35840 ft 433 kts 345°
2026-05-07 22:13 -3.19573 -81.62656 35840 ft 433 kts 345°
2026-05-07 22:13 -3.13685 -81.63906 35840 ft 433 kts 345°
2026-05-07 22:14 -3.07776 -81.65160 35840 ft 433 kts 346°
2026-05-07 22:14 -3.01912 -81.66404 35840 ft 433 kts 346°
2026-05-07 22:15 -2.96012 -81.67656 35841 ft 433 kts 345°
2026-05-07 22:15 -2.90138 -81.68904 35847 ft 432 kts 346°
2026-05-07 22:16 -2.84240 -81.70155 35856 ft 432 kts 346°
2026-05-07 22:16 -2.78355 -81.71403 35862 ft 432 kts 346°
2026-05-07 22:17 -2.72502 -81.72646 35865 ft 432 kts 346°
2026-05-07 22:17 -2.66640 -81.73889 35866 ft 432 kts 346°
2026-05-07 22:18 -2.57849 -81.75754 35866 ft 432 kts 346°
2026-05-07 22:19 -2.51970 -81.77002 35866 ft 432 kts 346°
2026-05-07 22:19 -2.46101 -81.78247 35866 ft 432 kts 346°
2026-05-07 22:20 -2.40223 -81.79493 35866 ft 432 kts 346°
2026-05-07 22:20 -2.34363 -81.80735 35866 ft 432 kts 346°
2026-05-07 22:21 -2.28487 -81.81981 35866 ft 432 kts 346°
2026-05-07 22:21 -2.22628 -81.83223 35866 ft 432 kts 346°
2026-05-07 22:22 -2.16786 -81.84463 35866 ft 432 kts 346°
2026-05-07 22:22 -2.10908 -81.85709 35866 ft 432 kts 346°
2026-05-07 22:23 -2.05041 -81.87013 35865 ft 431 kts 343°
2026-05-07 22:23 -1.99315 -81.88710 35865 ft 430 kts 341°
2026-05-07 22:24 -1.93611 -81.90472 35863 ft 430 kts 341°
2026-05-07 22:24 -1.87895 -81.92235 35860 ft 430 kts 341°
2026-05-07 22:25 -1.82187 -81.93994 35856 ft 430 kts 341°
2026-05-07 22:25 -1.76478 -81.95752 35850 ft 430 kts 341°
2026-05-07 22:26 -1.70771 -81.97510 35844 ft 430 kts 341°
2026-05-07 22:26 -1.65052 -81.99270 35841 ft 430 kts 341°
2026-05-07 22:27 -1.59341 -82.01028 35840 ft 430 kts 341°
2026-05-07 22:27 -1.53646 -82.02781 35840 ft 429 kts 341°
2026-05-07 22:28 -1.47972 -82.04526 35840 ft 429 kts 341°
2026-05-07 22:28 -1.42250 -82.06287 35840 ft 429 kts 341°
2026-05-07 22:29 -1.36560 -82.08038 35840 ft 429 kts 341°
2026-05-07 22:29 -1.30873 -82.09788 35839 ft 429 kts 341°
2026-05-07 22:30 -1.25189 -82.11536 35839 ft 429 kts 341°
2026-05-07 22:30 -1.19494 -82.13289 35836 ft 428 kts 341°
2026-05-07 22:31 -1.13838 -82.15030 35830 ft 428 kts 341°
2026-05-07 22:31 -1.08120 -82.16790 35822 ft 428 kts 342°
2026-05-07 22:32 -1.02435 -82.18539 35816 ft 428 kts 342°
2026-05-07 22:32 -0.96748 -82.20290 35814 ft 428 kts 342°
2026-05-07 22:33 -0.91092 -82.22030 35813 ft 427 kts 342°
2026-05-07 22:33 -0.85406 -82.23776 35813 ft 427 kts 342°
2026-05-07 22:34 -0.79764 -82.25511 35813 ft 426 kts 342°
2026-05-07 22:34 -0.74108 -82.27251 35813 ft 427 kts 342°
2026-05-07 22:35 -0.68432 -82.28998 35813 ft 427 kts 342°
2026-05-07 22:35 -0.62760 -82.30743 35813 ft 426 kts 342°
2026-05-07 22:36 -0.57103 -82.32482 35814 ft 426 kts 342°
2026-05-07 22:36 -0.51447 -82.34223 35813 ft 426 kts 342°
2026-05-07 22:37 -0.45784 -82.35965 35813 ft 426 kts 342°
2026-05-07 22:37 -0.40154 -82.37698 35813 ft 426 kts 342°
2026-05-07 22:38 -0.34461 -82.39450 35813 ft 427 kts 343°
2026-05-07 22:38 -0.28797 -82.41193 35813 ft 427 kts 343°
2026-05-07 22:39 -0.23156 -82.42929 35813 ft 427 kts 343°
2026-05-07 22:39 -0.17446 -82.44685 35813 ft 427 kts 343°
2026-05-07 22:40 -0.11803 -82.46420 35813 ft 427 kts 343°
2026-05-07 22:40 -0.06125 -82.48165 35813 ft 427 kts 343°
2026-05-07 22:41 -0.00466 -82.49905 35814 ft 427 kts 343°
2026-05-07 22:41 0.05228 -82.51660 35813 ft 426 kts 343°
2026-05-07 22:42 0.10855 -82.53392 35813 ft 426 kts 343°
2026-05-07 22:42 0.16516 -82.55133 35813 ft 426 kts 343°
2026-05-07 22:43 0.22190 -82.56879 35812 ft 426 kts 343°
2026-05-07 22:43 0.27862 -82.58624 35813 ft 427 kts 343°
2026-05-07 22:44 0.33492 -82.60357 35813 ft 426 kts 343°
2026-05-07 22:44 0.39161 -82.62102 35813 ft 426 kts 343°
2026-05-07 22:45 0.44838 -82.63849 35813 ft 426 kts 343°
2026-05-07 22:45 0.50484 -82.65586 35813 ft 426 kts 343°
2026-05-07 22:46 0.56143 -82.67328 35813 ft 426 kts 343°
2026-05-07 22:46 0.61726 -82.69046 35813 ft 426 kts 343°
2026-05-07 22:47 0.67372 -82.70783 35813 ft 427 kts 343°
2026-05-07 22:47 0.73050 -82.72531 35813 ft 427 kts 343°
2026-05-07 22:48 0.78692 -82.74268 35813 ft 427 kts 343°
2026-05-07 22:48 0.84361 -82.76012 35813 ft 427 kts 343°
2026-05-07 22:49 0.90019 -82.77754 35813 ft 427 kts 343°
2026-05-07 22:49 0.95684 -82.79498 35813 ft 427 kts 343°
2026-05-07 22:50 1.01346 -82.81242 35813 ft 427 kts 343°
2026-05-07 22:50 1.07034 -82.82994 35813 ft 427 kts 343°
2026-05-07 22:51 1.12683 -82.84733 35813 ft 426 kts 343°
2026-05-07 22:51 1.18330 -82.86472 35813 ft 426 kts 343°
2026-05-07 22:52 1.24017 -82.88223 35814 ft 427 kts 343°
2026-05-07 22:52 1.29676 -82.89966 35817 ft 427 kts 343°
2026-05-07 22:53 1.35335 -82.91709 35820 ft 427 kts 343°
2026-05-07 22:53 1.41015 -82.93459 35823 ft 427 kts 343°
2026-05-07 22:54 1.46682 -82.95068 35825 ft 427 kts 346°
2026-05-07 22:54 1.52439 -82.96620 35828 ft 427 kts 346°
2026-05-07 22:55 1.58147 -82.98171 35829 ft 427 kts 346°
2026-05-07 22:55 1.63880 -82.99734 35831 ft 427 kts 345°
2026-05-07 22:56 1.69589 -83.01296 35833 ft 426 kts 346°
2026-05-07 22:56 1.75294 -83.02856 35835 ft 426 kts 346°
2026-05-07 22:57 1.81020 -83.04423 35837 ft 426 kts 346°
2026-05-07 22:57 1.86711 -83.05981 35838 ft 426 kts 346°
2026-05-07 22:58 1.92419 -83.07543 35838 ft 426 kts 346°
2026-05-07 22:58 1.98123 -83.09105 35838 ft 426 kts 346°
2026-05-07 22:59 2.03809 -83.10661 35838 ft 426 kts 346°
2026-05-07 22:59 2.09547 -83.12232 35838 ft 426 kts 346°
2026-05-07 23:00 2.15239 -83.13790 35838 ft 426 kts 346°
2026-05-07 23:00 2.20938 -83.15351 35838 ft 426 kts 346°
2026-05-07 23:01 2.26654 -83.16916 35838 ft 426 kts 346°
2026-05-07 23:01 2.32361 -83.18479 35838 ft 426 kts 346°
2026-05-07 23:02 2.38081 -83.20046 35838 ft 426 kts 346°
2026-05-07 23:02 2.43797 -83.21612 35838 ft 426 kts 346°
2026-05-07 23:03 2.49486 -83.23170 35838 ft 426 kts 346°
2026-05-07 23:03 2.55193 -83.24734 35838 ft 426 kts 346°
2026-05-07 23:04 2.60938 -83.26308 35838 ft 426 kts 346°
2026-05-07 23:04 2.66648 -83.27872 35838 ft 426 kts 346°
2026-05-07 23:05 2.72341 -83.29433 35838 ft 426 kts 346°
2026-05-07 23:05 2.78040 -83.30994 35838 ft 426 kts 346°
2026-05-07 23:06 2.83767 -83.32564 35838 ft 426 kts 346°
2026-05-07 23:06 2.89479 -83.34130 35837 ft 426 kts 345°
2026-05-07 23:07 2.95186 -83.35694 35838 ft 427 kts 345°
2026-05-07 23:07 3.00889 -83.37258 35838 ft 426 kts 345°
2026-05-07 23:08 3.06633 -83.38834 35838 ft 426 kts 345°
2026-05-07 23:08 3.12346 -83.40401 35838 ft 426 kts 345°
2026-05-07 23:09 3.18055 -83.41966 35838 ft 426 kts 345°
2026-05-07 23:09 3.23774 -83.43535 35838 ft 426 kts 345°
2026-05-07 23:10 3.29484 -83.45100 35838 ft 427 kts 345°
2026-05-07 23:10 3.35198 -83.46668 35838 ft 427 kts 345°
2026-05-07 23:11 3.40920 -83.48238 35838 ft 427 kts 345°
2026-05-07 23:11 3.46646 -83.49810 35838 ft 427 kts 345°
2026-05-07 23:12 3.52360 -83.51379 35837 ft 427 kts 345°
2026-05-07 23:12 3.58099 -83.52953 35840 ft 427 kts 345°
2026-05-07 23:13 3.63819 -83.54524 35845 ft 427 kts 345°
2026-05-07 23:13 3.69563 -83.56102 35853 ft 427 kts 345°
2026-05-07 23:14 3.75255 -83.57665 35860 ft 427 kts 345°
2026-05-07 23:14 3.80975 -83.59237 35864 ft 427 kts 345°
2026-05-07 23:15 3.86715 -83.60813 35866 ft 427 kts 345°
2026-05-07 23:15 3.92406 -83.62376 35866 ft 428 kts 345°
2026-05-07 23:16 3.98139 -83.63952 35866 ft 428 kts 345°
2026-05-07 23:16 4.03867 -83.65527 35866 ft 428 kts 345°
2026-05-07 23:17 4.09627 -83.67109 35866 ft 428 kts 345°
2026-05-07 23:17 4.15355 -83.68684 35866 ft 428 kts 345°
2026-05-07 23:18 4.21052 -83.70250 35866 ft 428 kts 345°
2026-05-07 23:18 4.26799 -83.71831 35866 ft 428 kts 345°
2026-05-07 23:19 4.32521 -83.73404 35866 ft 428 kts 345°
2026-05-07 23:19 4.38248 -83.74979 35866 ft 428 kts 345°
2026-05-07 23:20 4.43979 -83.76556 35866 ft 428 kts 345°
2026-05-07 23:20 4.49749 -83.78143 35866 ft 428 kts 345°
2026-05-07 23:21 4.55494 -83.79724 35866 ft 428 kts 345°
2026-05-07 23:21 4.61208 -83.81297 35866 ft 428 kts 345°
2026-05-07 23:22 4.66963 -83.82881 35866 ft 428 kts 345°
2026-05-07 23:22 4.72691 -83.84459 35866 ft 428 kts 345°
2026-05-07 23:23 4.78410 -83.86034 35866 ft 429 kts 345°
2026-05-07 23:23 4.84174 -83.87621 35866 ft 429 kts 345°
2026-05-07 23:24 4.89888 -83.89195 35866 ft 429 kts 345°
2026-05-07 23:24 4.95630 -83.90777 35865 ft 429 kts 345°
2026-05-07 23:25 5.01404 -83.92368 35866 ft 430 kts 345°
2026-05-07 23:25 5.07153 -83.93953 35866 ft 430 kts 345°
2026-05-07 23:26 5.12908 -83.95540 35866 ft 430 kts 345°
2026-05-07 23:26 5.18689 -83.97134 35866 ft 431 kts 345°
2026-05-07 23:27 5.27365 -83.99527 35866 ft 431 kts 345°
2026-05-07 23:27 5.33124 -84.01115 35866 ft 432 kts 345°
2026-05-07 23:28 5.38930 -84.02718 35865 ft 433 kts 345°
2026-05-07 23:28 5.44723 -84.04317 35862 ft 433 kts 345°
2026-05-07 23:29 5.50499 -84.05912 35859 ft 433 kts 345°
2026-05-07 23:29 5.56305 -84.07515 35856 ft 433 kts 345°
2026-05-07 23:30 5.62111 -84.09119 35852 ft 433 kts 345°
2026-05-07 23:30 5.67915 -84.10722 35848 ft 433 kts 345°
2026-05-07 23:31 5.73691 -84.12325 35844 ft 433 kts 344°
2026-05-07 23:31 5.79322 -84.14485 35841 ft 434 kts 335°
2026-05-07 23:32 5.84534 -84.17568 35837 ft 435 kts 325°
2026-05-07 23:32 5.89175 -84.21484 35831 ft 436 kts 317°
2026-05-07 23:33 5.93506 -84.25746 35823 ft 436 kts 316°
2026-05-07 23:33 5.97816 -84.30006 35817 ft 436 kts 316°
2026-05-07 23:34 6.02159 -84.34285 35814 ft 436 kts 316°
2026-05-07 23:34 6.06483 -84.38537 35813 ft 436 kts 316°
2026-05-07 23:35 6.10843 -84.42825 35813 ft 436 kts 316°
2026-05-07 23:35 6.15162 -84.47073 35813 ft 436 kts 316°
2026-05-07 23:36 6.19484 -84.51325 35813 ft 436 kts 316°
2026-05-07 23:36 6.23831 -84.55602 35813 ft 436 kts 316°
2026-05-07 23:37 6.28158 -84.59862 35813 ft 436 kts 316°
2026-05-07 23:37 6.32478 -84.64114 35813 ft 435 kts 316°
2026-05-07 23:38 6.36796 -84.68366 35813 ft 435 kts 316°
2026-05-07 23:38 6.41107 -84.72611 35813 ft 435 kts 316°
2026-05-07 23:39 6.45435 -84.76876 35813 ft 436 kts 316°
2026-05-07 23:39 6.49754 -84.81130 35813 ft 435 kts 316°
2026-05-07 23:40 6.54073 -84.85387 35813 ft 435 kts 316°
2026-05-07 23:40 6.58375 -84.89629 35813 ft 435 kts 316°
2026-05-07 23:41 6.62711 -84.93906 35813 ft 435 kts 316°
2026-05-07 23:41 6.67013 -84.98150 35813 ft 435 kts 316°
2026-05-07 23:42 6.71344 -85.02423 35819 ft 435 kts 316°
2026-05-07 23:42 6.75657 -85.06680 35836 ft 435 kts 316°
2026-05-07 23:43 6.79973 -85.10941 35857 ft 435 kts 316°
2026-05-07 23:43 6.84257 -85.15170 35880 ft 434 kts 316°
2026-05-07 23:44 6.88583 -85.19443 35903 ft 434 kts 316°
2026-05-07 23:44 6.92875 -85.23685 35925 ft 434 kts 316°
2026-05-07 23:45 6.97202 -85.27961 35937 ft 434 kts 316°
2026-05-07 23:45 7.01484 -85.32194 35943 ft 434 kts 316°
2026-05-07 23:46 7.05794 -85.36455 35945 ft 433 kts 316°
2026-05-07 23:46 7.10069 -85.40684 35946 ft 433 kts 316°
2026-05-07 23:47 7.14386 -85.44953 35946 ft 433 kts 316°
2026-05-07 23:47 7.18709 -85.49232 35946 ft 433 kts 316°
2026-05-07 23:48 7.22975 -85.53455 35946 ft 433 kts 316°
2026-05-07 23:48 7.27289 -85.57726 35946 ft 433 kts 316°
2026-05-07 23:49 7.31560 -85.61957 35946 ft 433 kts 316°
2026-05-07 23:49 7.35851 -85.66208 35946 ft 433 kts 316°
2026-05-07 23:50 7.40141 -85.70461 35946 ft 433 kts 316°
2026-05-07 23:50 7.44414 -85.74696 35946 ft 432 kts 316°
2026-05-07 23:51 7.48688 -85.78934 35946 ft 433 kts 316°
2026-05-07 23:51 7.52981 -85.83193 35946 ft 433 kts 316°
2026-05-07 23:52 7.57265 -85.87444 35946 ft 433 kts 316°
2026-05-07 23:52 7.61519 -85.91666 35946 ft 432 kts 316°
2026-05-07 23:53 7.65814 -85.95931 35944 ft 432 kts 316°
2026-05-07 23:53 7.70078 -86.00167 35936 ft 432 kts 316°
2026-05-07 23:54 7.74365 -86.04427 35924 ft 432 kts 316°
2026-05-07 23:54 7.78641 -86.08675 35910 ft 432 kts 316°
2026-05-07 23:55 7.82930 -86.12936 35895 ft 432 kts 316°
2026-05-07 23:55 7.87206 -86.17188 35879 ft 432 kts 316°
2026-05-07 23:56 7.91479 -86.21437 35865 ft 433 kts 316°
2026-05-07 23:56 7.95757 -86.25695 35858 ft 433 kts 316°
2026-05-07 23:57 8.00035 -86.29954 35855 ft 433 kts 316°
2026-05-07 23:57 8.04324 -86.34224 35854 ft 433 kts 316°
2026-05-07 23:58 8.08588 -86.38471 35854 ft 433 kts 316°
2026-05-07 23:58 8.12896 -86.42763 35854 ft 432 kts 315°
2026-05-07 23:59 8.17215 -86.47067 35854 ft 432 kts 315°
2026-05-07 23:59 8.21495 -86.51336 35854 ft 432 kts 316°
2026-05-08 00:00 8.25754 -86.55583 35854 ft 432 kts 316°
2026-05-08 00:00 8.30028 -86.59846 35854 ft 432 kts 316°
2026-05-08 00:01 8.34287 -86.64096 35854 ft 432 kts 316°
2026-05-08 00:01 8.38573 -86.68374 35853 ft 432 kts 315°
2026-05-08 00:02 8.42814 -86.72611 35851 ft 431 kts 316°
2026-05-08 00:02 8.47082 -86.76874 35849 ft 431 kts 316°
2026-05-08 00:03 8.51339 -86.81127 35847 ft 431 kts 316°
2026-05-08 00:03 8.55600 -86.85387 35846 ft 431 kts 316°
2026-05-08 00:04 8.59842 -86.89629 35845 ft 430 kts 316°
2026-05-08 00:04 8.64095 -86.93882 35844 ft 431 kts 316°
2026-05-08 00:05 8.68350 -86.98140 35841 ft 431 kts 316°
2026-05-08 00:05 8.72607 -87.02401 35839 ft 431 kts 316°
2026-05-08 00:06 8.76854 -87.06654 35835 ft 430 kts 316°
2026-05-08 00:06 8.81094 -87.10900 35832 ft 430 kts 316°
2026-05-08 00:07 8.85342 -87.15157 35829 ft 430 kts 316°
2026-05-08 00:07 8.89569 -87.19394 35827 ft 430 kts 316°
2026-05-08 00:08 8.93816 -87.23652 35827 ft 430 kts 316°
2026-05-08 00:08 8.98045 -87.27894 35827 ft 430 kts 316°
2026-05-08 00:09 9.02283 -87.32145 35827 ft 430 kts 316°
2026-05-08 00:09 9.06541 -87.36420 35826 ft 431 kts 316°
2026-05-08 00:10 9.10819 -87.40717 35827 ft 434 kts 316°
2026-05-08 00:10 9.15087 -87.45003 35827 ft 434 kts 316°
2026-05-08 00:11 9.19348 -87.49283 35827 ft 434 kts 316°
2026-05-08 00:11 9.23634 -87.53589 35827 ft 434 kts 316°
2026-05-08 00:12 9.27910 -87.57889 35827 ft 434 kts 316°
2026-05-08 00:12 9.32201 -87.62206 35827 ft 434 kts 316°
2026-05-08 00:13 9.36478 -87.66510 35827 ft 434 kts 316°
2026-05-08 00:13 9.40747 -87.70808 35827 ft 434 kts 316°
2026-05-08 00:14 9.45032 -87.75122 35827 ft 434 kts 316°
2026-05-08 00:14 9.49309 -87.79430 35827 ft 434 kts 315°
2026-05-08 00:15 9.53563 -87.83717 35827 ft 434 kts 315°
2026-05-08 00:15 9.57843 -87.88032 35827 ft 434 kts 315°
2026-05-08 00:16 9.62134 -87.92361 35828 ft 434 kts 316°
2026-05-08 00:16 9.66390 -87.96653 35830 ft 434 kts 315°
2026-05-08 00:17 9.70687 -88.00990 35833 ft 434 kts 315°
2026-05-08 00:17 9.74954 -88.05299 35836 ft 434 kts 315°
2026-05-08 00:18 9.79228 -88.09616 35841 ft 434 kts 315°
2026-05-08 00:18 9.83498 -88.13931 35847 ft 434 kts 315°
2026-05-08 00:19 9.87767 -88.18246 35850 ft 434 kts 315°
2026-05-08 00:19 9.92060 -88.22588 35851 ft 434 kts 315°
2026-05-08 00:20 9.96319 -88.26897 35852 ft 434 kts 315°
2026-05-08 00:20 10.00615 -88.31245 35852 ft 434 kts 315°
2026-05-08 00:21 10.04867 -88.35551 35852 ft 434 kts 315°
2026-05-08 00:21 10.09156 -88.39886 35852 ft 434 kts 316°
2026-05-08 00:22 10.13456 -88.44215 35853 ft 434 kts 316°
2026-05-08 00:22 10.17748 -88.48539 35855 ft 434 kts 316°
2026-05-08 00:23 10.21996 -88.52823 35859 ft 434 kts 316°
2026-05-08 00:23 10.26277 -88.57142 35862 ft 434 kts 316°
2026-05-08 00:24 10.30558 -88.61463 35865 ft 434 kts 316°
2026-05-08 00:24 10.34833 -88.65781 35866 ft 433 kts 316°
2026-05-08 00:25 10.39114 -88.70106 35866 ft 433 kts 315°
2026-05-08 00:25 10.43372 -88.74408 35866 ft 433 kts 315°
2026-05-08 00:26 10.47641 -88.78727 35866 ft 433 kts 316°
2026-05-08 00:26 10.51899 -88.83033 35867 ft 433 kts 316°
2026-05-08 00:27 10.56167 -88.87352 35872 ft 433 kts 316°
2026-05-08 00:27 10.60416 -88.91653 35882 ft 433 kts 316°
2026-05-08 00:28 10.64674 -88.95965 35895 ft 433 kts 316°
2026-05-08 00:28 10.68939 -89.00286 35909 ft 433 kts 316°
2026-05-08 00:29 10.73193 -89.04598 35924 ft 433 kts 316°
2026-05-08 00:29 10.77478 -89.08944 35935 ft 432 kts 316°
2026-05-08 00:30 10.81705 -89.13232 35937 ft 432 kts 316°
2026-05-08 00:30 10.85960 -89.17549 35935 ft 432 kts 316°
2026-05-08 00:31 10.89965 -89.21616 35930 ft 432 kts 316°
2026-05-08 00:31 10.94223 -89.25942 35925 ft 432 kts 316°
2026-05-08 00:32 10.98469 -89.30256 35923 ft 432 kts 316°
2026-05-08 00:32 11.02733 -89.34592 35923 ft 432 kts 316°
2026-05-08 00:33 11.06970 -89.38901 35923 ft 432 kts 316°
2026-05-08 00:33 11.11249 -89.43256 35923 ft 432 kts 315°
2026-05-08 00:34 11.15495 -89.47578 35923 ft 432 kts 316°
2026-05-08 00:34 11.19764 -89.51925 35923 ft 432 kts 316°
2026-05-08 00:35 11.23997 -89.56237 35923 ft 432 kts 316°
2026-05-08 00:35 11.28249 -89.60571 35923 ft 432 kts 316°
2026-05-08 00:36 11.32487 -89.64893 35923 ft 432 kts 316°
2026-05-08 00:36 11.36701 -89.69192 35923 ft 432 kts 315°
2026-05-08 00:37 11.40950 -89.73529 35923 ft 432 kts 315°
2026-05-08 00:38 11.47306 -89.80020 35923 ft 432 kts 315°
2026-05-08 00:38 11.51551 -89.84357 35923 ft 432 kts 315°
2026-05-08 00:39 11.55806 -89.88706 35923 ft 432 kts 315°
2026-05-08 00:39 11.60048 -89.93045 35923 ft 432 kts 315°
2026-05-08 00:40 11.64291 -89.97385 35923 ft 432 kts 315°
2026-05-08 00:40 11.68528 -90.01723 35922 ft 432 kts 315°
2026-05-08 00:41 11.72761 -90.06059 35918 ft 432 kts 315°
2026-05-08 00:41 11.76988 -90.10390 35909 ft 432 kts 315°
2026-05-08 00:42 11.81242 -90.14750 35896 ft 432 kts 315°
2026-05-08 00:42 11.85496 -90.19113 35882 ft 432 kts 315°
2026-05-08 00:43 11.89725 -90.23452 35868 ft 432 kts 315°
2026-05-08 00:43 11.93973 -90.27814 35854 ft 432 kts 315°
2026-05-08 00:44 11.98200 -90.32154 35846 ft 432 kts 315°
2026-05-08 00:44 12.02436 -90.36507 35842 ft 432 kts 315°
2026-05-08 00:45 12.06659 -90.40848 35840 ft 432 kts 315°
2026-05-08 00:45 12.10928 -90.45239 35840 ft 432 kts 315°
2026-05-08 00:46 12.15137 -90.49567 35840 ft 432 kts 315°
2026-05-08 00:46 12.19404 -90.53960 35840 ft 432 kts 315°
2026-05-08 00:47 12.23638 -90.58322 35840 ft 432 kts 315°
2026-05-08 00:47 12.27873 -90.62686 35840 ft 432 kts 315°
2026-05-08 00:48 12.32103 -90.67047 35839 ft 432 kts 315°
2026-05-08 00:48 12.36357 -90.71435 35839 ft 432 kts 315°
2026-05-08 00:49 12.40597 -90.75809 35840 ft 433 kts 315°
2026-05-08 00:49 12.44822 -90.80172 35839 ft 433 kts 315°
2026-05-08 00:50 12.49076 -90.84566 35839 ft 433 kts 315°
2026-05-08 00:50 12.53309 -90.88942 35840 ft 433 kts 315°
2026-05-08 00:51 12.57535 -90.93312 35845 ft 433 kts 315°
2026-05-08 00:51 12.61784 -90.97706 35851 ft 433 kts 315°
2026-05-08 00:52 12.66027 -91.02098 35856 ft 433 kts 315°
2026-05-08 00:52 12.70266 -91.06488 35858 ft 433 kts 315°
2026-05-08 00:53 12.74482 -91.10857 35856 ft 433 kts 315°
2026-05-08 00:53 12.78717 -91.15247 35853 ft 433 kts 315°
2026-05-08 00:54 12.82933 -91.19619 35848 ft 433 kts 315°
2026-05-08 00:54 12.87164 -91.24009 35844 ft 433 kts 315°
2026-05-08 00:55 12.91412 -91.28419 35841 ft 433 kts 315°
2026-05-08 00:55 12.95659 -91.32831 35840 ft 433 kts 315°
2026-05-08 00:56 12.99889 -91.37228 35840 ft 433 kts 315°
2026-05-08 00:56 13.04125 -91.41631 35839 ft 433 kts 315°
2026-05-08 00:57 13.08324 -91.46001 35839 ft 433 kts 315°
2026-05-08 00:57 13.12586 -91.50437 35840 ft 433 kts 315°
2026-05-08 00:58 13.16806 -91.54831 35840 ft 433 kts 315°
2026-05-08 00:58 13.21023 -91.59224 35840 ft 433 kts 315°
2026-05-08 00:59 13.25274 -91.63656 35840 ft 433 kts 315°
2026-05-08 00:59 13.29497 -91.68060 35840 ft 433 kts 314°
2026-05-08 01:00 13.33719 -91.72466 35839 ft 433 kts 314°
2026-05-08 01:00 13.37957 -91.76891 35839 ft 434 kts 314°
2026-05-08 01:01 13.42211 -91.81336 35839 ft 434 kts 314°
2026-05-08 01:01 13.46435 -91.85752 35840 ft 434 kts 314°
2026-05-08 01:02 13.50657 -91.90168 35840 ft 433 kts 314°
2026-05-08 01:02 13.54890 -91.94597 35840 ft 433 kts 314°
2026-05-08 01:03 13.59116 -91.99021 35842 ft 433 kts 314°
2026-05-08 01:03 13.63337 -92.03442 35847 ft 433 kts 314°
2026-05-08 01:04 13.67555 -92.07863 35853 ft 433 kts 314°
2026-05-08 01:04 13.71807 -92.12323 35860 ft 433 kts 314°
2026-05-08 01:05 13.76035 -92.16760 35867 ft 433 kts 314°
2026-05-08 01:05 13.80263 -92.21198 35874 ft 433 kts 314°
2026-05-08 01:06 13.84477 -92.25625 35878 ft 433 kts 314°
2026-05-08 01:06 13.88720 -92.30084 35879 ft 433 kts 314°
2026-05-08 01:07 13.92914 -92.34495 35880 ft 433 kts 314°
2026-05-08 01:07 13.97147 -92.38949 35880 ft 433 kts 314°
2026-05-08 01:08 14.01356 -92.43380 35880 ft 433 kts 314°
2026-05-08 01:08 14.05597 -92.47847 35880 ft 433 kts 314°
2026-05-08 01:09 14.09812 -92.52290 35880 ft 433 kts 314°
2026-05-08 01:09 14.14031 -92.56738 35880 ft 433 kts 314°
2026-05-08 01:10 14.18246 -92.61186 35881 ft 433 kts 314°
2026-05-08 01:10 14.22478 -92.65654 35880 ft 433 kts 314°
2026-05-08 01:11 14.26653 -92.70108 35880 ft 433 kts 313°
2026-05-08 01:11 14.30749 -92.74654 35880 ft 433 kts 313°
2026-05-08 01:12 14.34864 -92.79234 35880 ft 433 kts 313°
2026-05-08 01:12 14.38972 -92.83799 35880 ft 433 kts 313°
2026-05-08 01:13 14.43069 -92.88350 35880 ft 433 kts 313°
2026-05-08 01:13 14.47175 -92.92911 35880 ft 432 kts 313°
2026-05-08 01:14 14.51279 -92.97472 35880 ft 432 kts 313°
2026-05-08 01:14 14.55379 -93.02033 35880 ft 431 kts 313°
2026-05-08 01:15 14.59490 -93.06609 35880 ft 431 kts 313°
2026-05-08 01:15 14.63575 -93.11158 35880 ft 431 kts 313°
2026-05-08 01:16 14.67676 -93.15726 35880 ft 431 kts 313°
2026-05-08 01:16 14.71738 -93.20256 35880 ft 430 kts 313°
2026-05-08 01:17 14.75806 -93.24794 35880 ft 430 kts 313°
2026-05-08 01:17 14.79899 -93.29363 35880 ft 429 kts 313°
2026-05-08 01:18 14.83952 -93.33889 35880 ft 429 kts 313°
2026-05-08 01:18 14.88030 -93.38447 35880 ft 429 kts 313°
2026-05-08 01:19 14.91475 -93.42299 35880 ft 429 kts 313°
2026-05-08 01:19 14.96247 -93.47638 35880 ft 429 kts 313°
2026-05-08 01:20 15.00328 -93.52208 35878 ft 429 kts 313°
2026-05-08 01:20 15.04460 -93.56835 35882 ft 428 kts 313°
2026-05-08 01:21 15.08574 -93.61449 35891 ft 428 kts 313°
2026-05-08 01:21 15.12644 -93.66015 35896 ft 428 kts 313°
2026-05-08 01:22 15.16764 -93.70435 35899 ft 427 kts 314°
2026-05-08 01:22 15.20930 -93.74837 35899 ft 428 kts 314°
2026-05-08 01:23 15.25096 -93.79256 35899 ft 427 kts 314°
2026-05-08 01:23 15.29243 -93.83666 35900 ft 427 kts 314°
2026-05-08 01:24 15.33401 -93.88094 35900 ft 427 kts 314°
2026-05-08 01:24 15.37593 -93.92560 35900 ft 427 kts 314°
2026-05-08 01:25 15.41757 -93.96999 35899 ft 426 kts 314°
2026-05-08 01:25 15.45889 -94.01407 35899 ft 425 kts 313°
2026-05-08 01:26 15.50038 -94.05837 35900 ft 425 kts 313°
2026-05-08 01:26 15.54158 -94.10240 35900 ft 424 kts 313°
2026-05-08 01:27 15.58274 -94.14640 35898 ft 424 kts 313°
2026-05-08 01:27 15.62397 -94.19050 35895 ft 424 kts 313°
2026-05-08 01:28 15.66495 -94.23436 35891 ft 423 kts 313°
2026-05-08 01:28 15.70602 -94.27834 35887 ft 423 kts 313°
2026-05-08 01:29 15.74722 -94.32250 35884 ft 423 kts 313°
2026-05-08 01:29 15.78823 -94.36646 35882 ft 423 kts 313°
2026-05-08 01:30 15.82915 -94.41037 35882 ft 423 kts 313°
2026-05-08 01:30 15.87037 -94.45461 35882 ft 422 kts 313°
2026-05-08 01:31 15.91130 -94.49858 35882 ft 422 kts 313°
2026-05-08 01:31 15.95222 -94.54258 35882 ft 423 kts 313°
2026-05-08 01:32 15.99326 -94.58672 35882 ft 423 kts 313°
2026-05-08 01:32 16.03401 -94.63057 35882 ft 422 kts 313°
2026-05-08 01:33 16.07491 -94.67463 35882 ft 422 kts 313°
2026-05-08 01:33 16.11564 -94.71851 35882 ft 421 kts 313°
2026-05-08 01:34 16.15585 -94.76188 35882 ft 421 kts 313°
2026-05-08 01:34 16.19716 -94.80645 35882 ft 421 kts 313°
2026-05-08 01:35 16.23854 -94.85114 35882 ft 421 kts 313°
2026-05-08 01:35 16.27977 -94.89568 35889 ft 421 kts 313°
2026-05-08 01:36 16.32081 -94.94004 35898 ft 421 kts 313°
2026-05-08 01:36 16.36198 -94.98460 35909 ft 421 kts 313°
2026-05-08 01:37 16.40286 -95.02885 35918 ft 420 kts 313°
2026-05-08 01:37 16.44299 -95.07385 35926 ft 420 kts 309°
2026-05-08 01:38 16.47860 -95.12341 35932 ft 421 kts 302°
2026-05-08 01:38 16.50866 -95.17612 35935 ft 422 kts 298°
2026-05-08 01:39 16.53798 -95.22990 35935 ft 422 kts 298°
2026-05-08 01:39 16.56729 -95.28358 35935 ft 422 kts 298°
2026-05-08 01:40 16.59644 -95.33693 35935 ft 422 kts 298°
2026-05-08 01:40 16.62575 -95.39059 35935 ft 422 kts 298°
2026-05-08 01:41 16.65510 -95.44434 35935 ft 422 kts 298°
2026-05-08 01:41 16.68411 -95.49748 35937 ft 422 kts 298°
2026-05-08 01:42 16.71351 -95.55143 35939 ft 422 kts 298°
2026-05-08 01:42 16.74250 -95.60465 35942 ft 421 kts 298°
2026-05-08 01:43 16.77181 -95.65850 35946 ft 421 kts 298°
2026-05-08 01:43 16.80098 -95.71213 35950 ft 421 kts 298°
2026-05-08 01:44 16.82854 -95.76284 35952 ft 421 kts 298°
2026-05-08 01:44 16.85773 -95.81660 35954 ft 420 kts 298°
2026-05-08 01:45 16.88673 -95.87005 35954 ft 420 kts 298°
2026-05-08 01:45 16.91568 -95.92345 35954 ft 420 kts 298°
2026-05-08 01:46 16.94315 -95.97414 35955 ft 420 kts 298°
2026-05-08 01:46 16.97196 -96.02740 35955 ft 420 kts 298°
2026-05-08 01:47 17.00002 -96.07928 35965 ft 420 kts 297°
2026-05-08 01:47 17.02822 -96.13151 35985 ft 420 kts 297°
2026-05-08 01:48 17.07074 -96.21031 36024 ft 419 kts 297°
2026-05-08 01:48 17.09958 -96.26380 36052 ft 419 kts 297°
2026-05-08 01:49 17.12735 -96.31535 36072 ft 418 kts 297°
2026-05-08 01:49 17.15633 -96.36918 36084 ft 418 kts 297°
2026-05-08 01:50 17.18502 -96.42247 36090 ft 418 kts 297°
2026-05-08 01:50 17.21402 -96.47637 36092 ft 418 kts 297°
2026-05-08 01:51 17.24264 -96.52959 36094 ft 418 kts 297°
2026-05-08 01:51 17.27135 -96.58306 36093 ft 417 kts 297°
2026-05-08 01:52 17.29977 -96.63602 36093 ft 416 kts 297°
2026-05-08 01:52 17.32799 -96.68867 36091 ft 417 kts 297°
2026-05-08 01:53 17.35676 -96.74236 36085 ft 417 kts 297°
2026-05-08 01:53 17.38516 -96.79542 36078 ft 417 kts 297°
2026-05-08 01:54 17.41348 -96.84835 36070 ft 416 kts 297°
2026-05-08 01:54 17.44184 -96.90142 36062 ft 415 kts 297°
2026-05-08 01:55 17.47033 -96.95480 36055 ft 415 kts 297°
2026-05-08 01:55 17.49873 -97.00800 36051 ft 415 kts 297°
2026-05-08 01:56 17.52732 -97.06165 36051 ft 415 kts 297°
2026-05-08 01:56 17.55589 -97.11529 36053 ft 416 kts 298°
2026-05-08 01:57 17.58620 -97.16788 36057 ft 417 kts 303°
2026-05-08 01:57 17.62209 -97.21650 36060 ft 419 kts 310°
2026-05-08 01:58 17.66315 -97.26062 36064 ft 420 kts 315°
2026-05-08 01:58 17.70538 -97.30303 36065 ft 420 kts 315°
2026-05-08 01:59 17.74805 -97.34597 36065 ft 420 kts 315°
2026-05-08 01:59 17.79029 -97.38859 36065 ft 420 kts 315°
2026-05-08 02:00 17.83295 -97.43169 36065 ft 421 kts 315°
2026-05-08 02:00 17.87518 -97.47440 36065 ft 421 kts 315°
2026-05-08 02:01 17.91809 -97.51784 36065 ft 421 kts 315°
2026-05-08 02:01 17.96078 -97.56107 36066 ft 421 kts 315°
2026-05-08 02:02 18.00342 -97.60428 36070 ft 422 kts 315°
2026-05-08 02:02 18.04574 -97.64721 36075 ft 421 kts 315°
2026-05-08 02:03 18.08838 -97.69048 36082 ft 421 kts 315°
2026-05-08 02:03 18.13065 -97.73341 36088 ft 421 kts 315°
2026-05-08 02:04 18.17298 -97.77644 36091 ft 421 kts 315°
2026-05-08 02:04 18.21553 -97.81973 36093 ft 421 kts 315°
2026-05-08 02:05 18.25785 -97.86279 36094 ft 421 kts 315°
2026-05-08 02:05 18.30014 -97.90585 36094 ft 421 kts 315°
2026-05-08 02:06 18.34255 -97.94907 36094 ft 421 kts 315°
2026-05-08 02:06 18.38438 -97.99174 35946 ft 421 kts 315°
2026-05-08 02:07 18.40573 -98.01353 35168 ft 429 kts 315°
2026-05-08 02:07 18.42738 -98.03564 34202 ft 438 kts 315°
2026-05-08 02:07 18.44951 -98.05824 33421 ft 441 kts 315°
2026-05-08 02:07 18.47177 -98.08098 32739 ft 442 kts 315°
2026-05-08 02:08 18.49422 -98.10389 31939 ft 446 kts 315°
2026-05-08 02:08 18.51635 -98.12651 31200 ft 447 kts 315°
2026-05-08 02:08 18.53863 -98.14930 30495 ft 448 kts 315°
2026-05-08 02:08 18.56106 -98.17223 29792 ft 448 kts 315°
2026-05-08 02:09 18.58358 -98.19530 29070 ft 448 kts 315°
2026-05-08 02:09 18.60580 -98.21807 28481 ft 445 kts 315°
2026-05-08 02:09 18.62784 -98.24065 28009 ft 440 kts 315°
2026-05-08 02:09 18.64980 -98.26315 27536 ft 435 kts 314°
2026-05-08 02:10 18.67141 -98.28532 27055 ft 431 kts 314°
2026-05-08 02:10 18.69292 -98.30766 26575 ft 426 kts 311°
2026-05-08 02:10 18.71047 -98.33253 26252 ft 415 kts 297°
2026-05-08 02:10 18.72217 -98.36045 25898 ft 409 kts 285°
2026-05-08 02:11 18.72872 -98.38968 25172 ft 411 kts 278°
2026-05-08 02:11 18.73391 -98.41924 24541 ft 412 kts 277°
2026-05-08 02:11 18.73897 -98.44881 23953 ft 411 kts 277°
2026-05-08 02:11 18.74422 -98.47906 23371 ft 410 kts 278°
2026-05-08 02:12 18.74943 -98.50848 22822 ft 408 kts 278°
2026-05-08 02:12 18.75480 -98.53837 22263 ft 406 kts 278°
2026-05-08 02:12 18.76007 -98.56747 21719 ft 403 kts 278°
2026-05-08 02:12 18.76534 -98.59646 21171 ft 401 kts 279°
2026-05-08 02:13 18.77040 -98.62430 20642 ft 399 kts 279°
2026-05-08 02:13 18.77556 -98.65262 20101 ft 396 kts 278°
2026-05-08 02:13 18.78066 -98.68073 19561 ft 393 kts 278°
2026-05-08 02:13 18.78586 -98.70933 19006 ft 391 kts 278°
2026-05-08 02:14 18.79300 -98.73722 18512 ft 389 kts 294°
2026-05-08 02:14 18.80749 -98.75852 18156 ft 385 kts 316°
2026-05-08 02:14 18.82920 -98.77518 17833 ft 377 kts 327°
2026-05-08 02:14 18.85165 -98.78989 17512 ft 369 kts 327°
2026-05-08 02:15 18.87364 -98.80456 17203 ft 365 kts 326°
2026-05-08 02:15 18.89463 -98.81915 17032 ft 363 kts 325°
2026-05-08 02:15 18.91567 -98.83417 16704 ft 363 kts 325°
2026-05-08 02:15 18.93646 -98.84914 16346 ft 360 kts 325°
2026-05-08 02:16 18.95771 -98.86375 16021 ft 358 kts 327°
2026-05-08 02:16 18.97920 -98.87814 15709 ft 356 kts 327°
2026-05-08 02:16 19.00010 -98.89211 15410 ft 354 kts 327°
2026-05-08 02:16 19.02083 -98.90601 15099 ft 353 kts 327°
2026-05-08 02:17 19.04162 -98.92001 14715 ft 351 kts 327°
2026-05-08 02:17 19.06214 -98.93384 14312 ft 348 kts 327°
2026-05-08 02:17 19.08205 -98.94727 14221 ft 333 kts 327°
2026-05-08 02:17 19.10124 -98.96022 14176 ft 318 kts 327°
2026-05-08 02:18 19.11982 -98.97276 14119 ft 304 kts 327°
2026-05-08 02:18 19.13631 -98.98389 14067 ft 291 kts 327°
2026-05-08 02:18 19.15307 -98.99516 14016 ft 278 kts 327°
2026-05-08 02:18 19.16916 -99.00606 13973 ft 269 kts 324°
2026-05-08 02:19 19.18414 -99.01809 13971 ft 268 kts 318°
2026-05-08 02:19 19.19792 -99.03136 13942 ft 269 kts 316°
2026-05-08 02:19 19.21191 -99.04536 13471 ft 274 kts 315°
2026-05-08 02:19 19.22579 -99.05932 13030 ft 277 kts 316°
2026-05-08 02:20 19.23958 -99.07349 12639 ft 277 kts 313°
2026-05-08 02:20 19.25221 -99.08926 12255 ft 277 kts 308°
2026-05-08 02:20 19.26379 -99.10523 11898 ft 273 kts 307°
2026-05-08 02:20 19.27228 -99.11709 11634 ft 263 kts 307°
2026-05-08 02:21 19.28305 -99.13211 11291 ft 252 kts 307°
2026-05-08 02:21 19.29350 -99.14660 10957 ft 241 kts 307°
2026-05-08 02:21 19.30341 -99.16034 10709 ft 227 kts 307°
2026-05-08 02:21 19.31269 -99.17321 10431 ft 214 kts 307°
2026-05-08 02:22 19.32219 -99.18472 10160 ft 201 kts 320°
2026-05-08 02:22 19.33385 -99.19191 9956 ft 190 kts 341°
2026-05-08 02:22 19.34661 -99.19417 9667 ft 186 kts
2026-05-08 02:22 19.35910 -99.19164 9412 ft 179 kts 22°
2026-05-08 02:23 19.36961 -99.18510 9167 ft 173 kts 43°
2026-05-08 02:23 19.37749 -99.17559 8995 ft 171 kts 58°
2026-05-08 02:23 19.38344 -99.16471 8989 ft 171 kts 63°
2026-05-08 02:23 19.38915 -99.15359 8882 ft 171 kts 62°
2026-05-08 02:24 19.39505 -99.14268 8664 ft 166 kts 56°
2026-05-08 02:24 19.40081 -99.13243 8470 ft 157 kts 56°
2026-05-08 02:24 19.40619 -99.12289 8235 ft 148 kts 56°
2026-05-08 02:24 19.41155 -99.11338 8027 ft 149 kts 56°
2026-05-08 02:25 19.41609 -99.10530 7851 ft 147 kts 56°
2026-05-08 02:25 19.42128 -99.09602 7666 ft 146 kts 56°
2026-05-08 02:25 19.42625 -99.08713 7445 ft 146 kts 55°
2026-05-08 02:25 19.43146 -99.07789 7321 ft 139 kts 56°
2026-05-08 02:26 19.43561 -99.07056 7321 ft 91 kts 59°
2026-05-08 02:26 19.43772 -99.06676 7321 ft 32 kts 58°
2026-05-08 02:26 19.43872 -99.06535 7321 ft 15 kts 38°
2026-05-08 02:26 19.43921 -99.06501 7321 ft 4 kts 26°
2026-05-08 02:27 19.43948 -99.06499 7321 ft 4 kts 325°
2026-05-08 02:27 19.43963 -99.06526 7321 ft 4 kts 285°
2026-05-08 02:27 19.43965 -99.06567 7321 ft 6 kts 268°
2026-05-08 02:27 19.43962 -99.06628 7321 ft 9 kts 268°
2026-05-08 02:28 19.43962 -99.06704 7321 ft 11 kts 271°
2026-05-08 02:28 19.43965 -99.06791 7321 ft 10 kts 284°
2026-05-08 02:28 19.44025 -99.06843 7321 ft 12 kts 330°
2026-05-08 02:28 19.44067 -99.06867 7321 ft 5 kts 331°
2026-05-08 02:29 19.44094 -99.06883 7321 ft 0 kts 329°
2026-05-08 02:29 19.44095 -99.06888 7321 ft 1 kts 266°
2026-05-08 02:29 19.44091 -99.06912 7321 ft 4 kts 253°
2026-05-08 02:29 19.44070 -99.06950 7321 ft 7 kts 237°
2026-05-08 02:30 19.44038 -99.07004 7321 ft 10 kts 238°
2026-05-08 02:30 19.44001 -99.07073 7321 ft 10 kts 239°
2026-05-08 02:30 19.43962 -99.07143 7321 ft 10 kts 239°
2026-05-08 02:30 19.43935 -99.07192 7321 ft 5 kts 239°
2026-05-08 02:31 19.43919 -99.07220 7321 ft 1 kts 239°
2026-05-08 02:31 19.43916 -99.07226 7321 ft 0 kts 239°
2026-05-08 02:31 19.43909 -99.07238 7321 ft 3 kts 239°
2026-05-08 02:31 19.43893 -99.07266 7321 ft 5 kts 239°
2026-05-08 02:32 19.43866 -99.07313 7321 ft 9 kts 239°
2026-05-08 02:32 19.43823 -99.07391 7321 ft 14 kts 239°
2026-05-08 02:32 19.43767 -99.07491 7321 ft 16 kts 239°
2026-05-08 02:32 19.43709 -99.07594 7321 ft 16 kts 239°
2026-05-08 02:33 19.43655 -99.07693 7321 ft 9 kts 238°
2026-05-08 02:33 19.43641 -99.07740 7321 ft 5 kts 302°
2026-05-08 02:33 19.43678 -99.07753 7321 ft 5 kts 348°
2026-05-08 02:33 19.43697 -99.07758 7321 ft 0 kts 347°
2026-05-08 02:34 19.43698 -99.07758 7321 ft 0 kts 348°